Wind_Speed
45 40 35 33 30 30 27 24 22 19 18 19 17 17 15 14 11 11 13 19 20 21 23 28 32 36 41 42 37 33 34 36 36 34 32 30 30 29 29 31 30 31 32
45 41 38 36 35 33 30 26 23 19 20 22 22 21 20 19 17 16 19 22 25 26 29 33 38 42 39 31 28 31 34 37 38 33 28 27 29 29 28 30 30 28 19
46 45 43 41 38 37 33 27 25 22 22 22 23 24 24 24 22 21 23 26 29 31 33 39 42 38 29 29 31 32 33 34 33 31 31 31 31 25 24 26 25 21 15
46 47 46 44 41 39 35 32 28 24 23 23 23 26 27 27 25 25 28 29 32 33 36 39 38 29 30 30 31 33 33 33 29 26 27 30 27 27 20 16 11 7 14
48 49 47 46 44 41 39 36 30 28 28 26 26 26 28 29 28 30 29 30 32 34 39 41 27 25 24 31 35 41 38 35 34 30 31 27 28 21 13 6 2 4 6
51 51 50 48 47 42 42 38 34 33 31 31 33 32 30 28 28 30 30 31 32 36 39 33 26 25 25 29 33 36 41 40 40 31 35 26 23 15 7 7 12 15 19
50 53 53 51 48 44 42 40 38 35 34 33 34 33 31 31 31 30 31 31 33 36 39 30 28 23 25 30 33 34 32 35 33 34 37 36 22 15 17 14 16 19 27
44 53 53 53 50 45 44 43 41 36 34 36 36 35 35 33 32 33 32 32 35 38 35 30 29 29 30 33 35 35 33 33 34 32 33 36 36 29 24 27 28 29 33
38 51 56 53 52 48 48 46 43 38 39 38 38 38 34 31 29 30 34 35 37 38 34 30 29 31 31 34 36 39 41 39 41 39 32 33 35 39 36 32 32 33 39
40 44 52 51 51 51 48 46 44 43 42 43 42 40 37 35 33 33 34 39 39 38 35 31 31 34 34 35 36 38 42 46 47 45 38 33 38 40 39 39 37 38 37
47 43 44 50 52 52 50 47 50 49 48 47 45 43 42 39 37 38 38 41 40 36 35 31 33 35 37 38 40 43 48 49 48 46 41 42 38 39 39 40 42 40 38
48 45 43 41 44 48 51 52 52 50 49 47 46 45 43 43 43 43 45 43 42 37 33 35 38 36 38 42 43 47 50 50 47 42 41 43 37 36 40 42 42 43 46
53 51 49 47 45 46 47 48 49 48 47 46 48 49 48 47 49 50 49 46 37 34 35 38 39 38 40 44 46 49 50 49 46 43 44 46 42 38 38 43 45 50 50
56 54 51 50 50 50 51 51 50 49 49 51 52 51 51 53 55 55 51 41 33 33 37 39 39 41 42 43 44 48 50 51 50 46 49 51 53 47 42 44 49 58 56
45 53 59 59 57 56 56 55 55 55 56 56 56 57 60 60 60 56 41 35 37 38 41 43 44 45 44 44 45 47 51 53 54 52 52 58 56 47 46 49 46 49 57
38 39 40 44 52 58 60 61 62 63 64 64 64 63 60 54 46 39 36 40 42 44 45 46 47 46 46 47 49 51 55 59 58 58 60 63 61 59 51 53 55 52 53
44 44 44 44 43 43 45 49 52 52 52 49 46 42 41 41 42 44 44 45 47 49 49 51 50 50 51 52 55 58 61 63 65 63 65 65 67 61 55 51 50 53 50
55 55 53 53 51 47 47 48 47 46 47 48 48 47 46 46 48 50 50 50 52 54 55 54 55 56 57 59 59 63 66 68 68 70 69 69 70 62 60 53 58 56 49
58 58 60 60 58 57 57 56 55 53 53 54 54 53 53 54 55 55 55 55 57 58 58 60 63 62 64 66 68 71 70 72 73 75 73 74 66 68 63 52 57 55 46
60 60 61 62 62 64 63 61 60 60 59 60 58 56 56 57 57 58 58 60 62 63 64 66 68 68 70 73 76 77 77 77 78 80 81 76 75 71 60 53 56 53 51
67 65 63 65 66 65 65 67 66 64 64 64 63 63 63 64 65 66 67 68 68 69 71 73 75 75 79 80 81 81 82 83 85 86 83 77 71 69 59 49 57 50 54
72 70 69 68 70 70 69 69 70 71 71 71 71 71 71 72 73 74 75 76 76 77 78 80 81 85 83 84 87 86 88 87 85 87 84 80 73 59 52 52 49 52 48
79 77 74 74 74 75 74 74 76 77 79 79 80 80 79 80 82 82 82 83 83 85 85 88 88 89 91 93 90 89 89 90 87 81 80 76 67 58 54 55 52 51 54
85 82 81 82 81 80 81 81 81 82 84 86 87 87 87 87 88 89 89 90 91 91 92 92 94 97 94 92 94 92 91 76 73 73 72 71 69 65 61 60 63 60 53
89 86 87 87 88 88 88 88 88 88 89 89 90 90 91 93 93 92 94 95 97 99 98 98 97 96 94 93 92 85 73 72 74 74 75 76 81 79 76 70 64 64 58
91 90 92 92 93 94 95 96 96 96 96 97 98 97 97 99 100 102 102 102 104 103 101 100 99 96 88 86 85 81 80 77 82 84 82 89 85 77 73 71 62 57 59
Wind_Direction
220 217 214 214 215 215 214 220 230 232 233 247 248 243 245 257 272 299 322 338 332 326 327 330 328 326 323 320 320 324 327 326 319 313 307 302 302 299 289 279 271 277 279
225 222 220 218 220 216 219 226 235 240 238 239 246 245 247 259 271 288 312 324 326 325 327 327 327 325 323 330 336 340 334 327 322 319 313 301 300 291 289 284 274 278 281
225 223 222 220 221 220 222 228 237 242 243 243 248 248 251 260 273 288 305 314 321 323 326 325 325 327 334 331 335 336 340 333 320 313 312 307 307 294 286 283 282 284 279
224 225 225 225 224 225 227 232 236 239 247 251 258 254 258 265 280 292 301 309 316 320 321 324 326 331 336 338 344 350 348 338 336 327 318 311 311 306 308 307 291 306 313
219 227 227 227 228 227 229 235 239 240 248 255 263 266 268 274 280 286 297 305 310 316 318 324 326 326 328 342 347 355 359 354 349 342 338 329 314 316 317 331 260 311 295
215 223 228 229 230 232 231 235 237 242 250 260 266 268 270 276 282 288 294 300 307 312 317 323 318 323 337 342 346 348 355 354 349 344 344 327 318 315 303 299 270 282 287
223 220 224 229 231 231 234 236 239 245 255 262 268 268 272 278 281 285 290 296 304 314 317 313 314 312 332 340 342 345 350 355 354 338 332 339 321 304 308 302 289 286 290
233 225 225 227 231 231 234 239 244 249 256 260 262 266 271 276 279 281 287 296 304 310 309 302 306 307 324 331 337 339 346 347 350 347 330 325 322 306 296 302 297 305 306
238 230 225 227 231 233 235 241 245 249 256 259 261 266 271 280 278 284 292 296 300 306 297 298 300 305 315 322 328 330 333 338 337 337 338 322 316 315 304 299 302 304 305
235 233 230 231 231 234 239 243 247 251 255 261 264 265 269 276 278 287 289 294 298 299 290 297 299 305 311 318 323 324 327 331 332 332 325 322 312 304 302 302 302 302 306
230 231 230 232 233 235 237 244 248 251 254 258 260 263 266 272 277 281 282 289 289 281 279 292 297 302 309 317 320 322 324 326 329 326 323 318 314 304 297 293 295 300 301
232 233 236 237 235 237 238 240 244 248 252 256 259 264 268 273 276 277 280 282 283 273 276 287 293 305 312 314 316 318 321 324 326 328 325 326 312 309 302 295 292 286 285
232 235 236 236 238 239 239 241 243 246 251 255 259 264 267 271 274 276 279 279 272 270 279 287 295 304 310 313 316 317 319 321 321 320 321 324 318 301 301 307 307 292 287
237 236 238 239 240 241 243 246 249 251 253 257 261 264 266 268 271 272 277 272 265 271 278 285 296 302 306 308 310 313 315 316 316 315 321 319 314 306 294 298 296 295 294
233 239 240 239 240 243 246 248 250 253 254 256 259 262 266 269 273 276 266 266 270 275 281 289 295 300 300 301 303 307 313 313 314 312 316 318 316 302 288 290 291 286 291
241 239 239 242 245 245 247 249 251 254 257 260 264 267 268 270 268 264 266 272 274 278 283 288 292 292 291 293 298 306 310 312 313 313 314 316 312 310 297 284 283 280 280
245 249 251 249 244 243 245 248 250 252 256 258 261 260 259 259 261 264 269 275 278 280 282 284 284 285 288 292 297 302 307 310 312 312 311 311 314 311 307 288 279 276 267
246 249 249 249 251 251 248 248 249 251 255 258 260 260 260 260 263 267 272 274 274 276 279 280 281 282 286 291 295 299 303 305 308 309 312 311 312 309 307 294 287 280 267
240 245 248 251 251 249 248 250 252 255 257 258 259 259 259 261 264 265 268 270 273 275 277 279 280 283 287 291 295 296 301 305 308 308 310 310 309 310 308 292 287 283 252
242 243 243 246 249 253 254 253 253 254 254 254 256 258 260 260 262 265 268 272 274 277 279 281 284 286 290 293 295 300 302 304 305 307 307 308 310 311 302 299 289 277 260
244 244 245 245 247 247 249 254 257 256 255 256 258 259 261 264 267 269 271 274 276 280 281 284 287 289 289 292 298 300 301 302 305 304 306 309 309 308 299 292 287 271 262
245 245 245 246 246 247 248 249 251 254 256 257 260 263 265 266 268 271 274 275 277 280 283 284 285 287 293 297 298 298 299 301 303 303 304 305 306 301 293 295 288 282 259
247 248 249 250 250 251 251 251 251 252 254 256 258 260 263 266 268 270 272 273 277 279 281 285 289 292 293 295 296 297 298 299 299 300 302 301 301 298 293 296 286 290 261
247 248 251 253 255 255 256 256 257 257 257 258 260 263 265 267 270 272 274 277 279 283 285 286 287 288 294 295 295 297 299 300 301 300 300 300 303 303 299 292 293 290 273
249 250 251 252 254 256 258 259 260 262 263 264 266 268 270 270 273 277 278 279 280 281 283 284 290 290 292 293 295 294 292 299 303 305 305 305 307 304 299 294 291 288 279
248 250 253 255 256 256 257 259 261 262 263 265 267 269 271 271 272 274 276 278 280 283 288 289 289 289 289 290 294 291 289 295 302 305 305 308 305 296 295 293 284 272 270
Height
10968 10974 10980 10984 10988 10992 10995 10999 11002 11003 11005 11003 11005 11005 11005 11006 11007 11006 11005 11003 11001 11000 10998 10995 10991 10988 10982 10977 10970 10963 10956 10952 10947 10943 10939 10936 10933 10930 10928 10927 10926 10924 10923
10965 10971 10976 10980 10983 10987 10991 10994 10997 11000 11000 11000 11000 11001 11002 11003 11004 11003 11002 11000 10998 10996 10993 10990 10987 10982 10976 10970 10966 10961 10954 10946 10938 10933 10930 10927 10924 10920 10918 10916 10915 10917 10920
10958 10965 10969 10973 10978 10982 10986 10989 10992 10994 10995 10995 10996 10997 10997 10999 10999 10998 10997 10996 10993 10991 10989 10984 10980 10975 10971 10967 10962 10955 10949 10941 10934 10926 10922 10918 10914 10911 10910 10908 10909 10911 10914
10952 10957 10963 10968 10973 10977 10982 10984 10987 10988 10989 10990 10990 10992 10992 10993 10994 10995 10993 10991 10988 10986 10984 10981 10975 10969 10965 10960 10957 10952 10945 10936 10928 10923 10918 10912 10908 10904 10905 10906 10906 10908 10909
10944 10950 10956 10962 10966 10971 10975 10979 10982 10983 10983 10985 10986 10987 10988 10989 10990 10990 10988 10986 10984 10981 10978 10975 10972 10969 10963 10956 10950 10944 10938 10932 10926 10921 10916 10910 10904 10902 10901 10902 10904 10904 10904
10935 10942 10948 10954 10959 10966 10969 10973 10975 10977 10979 10979 10980 10982 10983 10984 10984 10983 10982 10980 10978 10976 10973 10970 10967 10962 10958 10954 10948 10942 10936 10929 10922 10916 10913 10910 10904 10900 10899 10901 10901 10899 10897
10928 10934 10939 10946 10952 10957 10962 10965 10968 10972 10973 10974 10973 10974 10976 10977 10977 10977 10975 10974 10972 10970 10965 10962 10961 10958 10953 10949 10945 10941 10938 10932 10926 10919 10912 10909 10907 10904 10902 10900 10900 10898 10893
10922 10927 10931 10936 10943 10949 10953 10956 10960 10964 10965 10966 10966 10967 10968 10971 10971 10970 10968 10968 10966 10963 10959 10956 10953 10950 10946 10943 10939 10936 10934 10930 10927 10922 10914 10907 10904 10903 10900 10897 10895 10895 10891
10913 10918 10921 10927 10935 10940 10944 10948 10952 10955 10956 10957 10959 10959 10962 10964 10964 10963 10961 10959 10958 10955 10952 10951 10947 10944 10941 10938 10933 10928 10923 10922 10919 10915 10912 10905 10899 10894 10892 10892 10889 10888 10884
10903 10906 10913 10920 10926 10930 10935 10940 10943 10945 10947 10947 10949 10951 10953 10955 10956 10957 10955 10950 10948 10946 10942 10942 10940 10936 10933 10930 10927 10924 10920 10915 10911 10907 10902 10901 10894 10888 10885 10883 10882 10880 10877
10893 10899 10904 10909 10914 10919 10925 10931 10932 10934 10936 10938 10939 10941 10943 10945 10947 10946 10946 10943 10941 10938 10935 10935 10932 10929 10927 10923 10919 10915 10911 10908 10905 10899 10894 10889 10886 10881 10878 10874 10870 10867 10865
10885 10891 10896 10901 10905 10909 10913 10916 10919 10922 10926 10927 10928 10930 10932 10934 10934 10934 10933 10932 10931 10928 10929 10927 10924 10923 10918 10914 10911 10907 10903 10899 10896 10893 10887 10881 10878 10873 10867 10864 10861 10859 10856
10873 10879 10885 10891 10896 10898 10901 10905 10909 10912 10914 10916 10917 10918 10920 10921 10921 10920 10920 10921 10921 10921 10920 10918 10915 10913 10910 10905 10901 10897 10894 10892 10888 10884 10880 10875 10870 10866 10861 10854 10848 10842 10842
10865 10870 10875 10880 10883 10887 10890 10895 10899 10901 10903 10904 10905 10905 10906 10907 10907 10906 10907 10909 10911 10912 10910 10908 10906 10904 10901 10897 10893 10889 10886 10882 10879 10874 10870 10865 10860 10857 10853 10845 10837 10826 10824
10851 10856 10861 10866 10870 10875 10879 10882 10884 10886 10888 10890 10891 10892 10892 10892 10893 10895 10897 10898 10899 10899 10898 10897 10895 10893 10890 10887 10884 10881 10875 10870 10866 10862 10857 10851 10846 10841 10837 10832 10826 10820 10812
10838 10844 10849 10853 10857 10861 10865 10868 10870 10872 10873 10875 10877 10879 10878 10880 10881 10884 10886 10886 10886 10886 10887 10886 10884 10881 10879 10875 10872 10868 10864 10858 10853 10847 10840 10834 10829 10824 10819 10813 10807 10803 10798
10830 10834 10836 10839 10843 10849 10852 10854 10857 10858 10860 10863 10865 10867 10867 10869 10870 10871 10873 10873 10873 10873 10873 10872 10870 10867 10864 10861 10859 10855 10851 10844 10840 10835 10830 10821 10814 10809 10799 10792 10786 10783 10779
10817 10819 10824 10827 10831 10838 10842 10843 10845 10847 10849 10851 10852 10853 10855 10856 10857 10858 10860 10860 10860 10859 10858 10856 10854 10852 10850 10847 10846 10842 10837 10830 10824 10817 10812 10803 10798 10791 10781 10772 10765 10763 10759
10804 10807 10810 10813 10818 10822 10825 10827 10830 10834 10836 10837 10838 10840 10842 10844 10845 10845 10846 10846 10845 10843 10842 10840 10837 10836 10833 10831 10829 10824 10820 10812 10805 10797 10792 10785 10781 10774 10765 10757 10748 10746 10742
10788 10791 10794 10797 10803 10805 10808 10813 10817 10819 10820 10821 10823 10825 10827 10828 10829 10830 10830 10829 10827 10827 10825 10823 10821 10819 10816 10812 10808 10804 10799 10794 10786 10777 10772 10768 10761 10752 10744 10739 10733 10729 10727
10770 10775 10779 10782 10785 10790 10792 10795 10799 10801 10803 10805 10807 10809 10809 10810 10809 10809 10809 10809 10809 10808 10806 10803 10801 10800 10797 10793 10789 10784 10779 10772 10765 10757 10751 10748 10743 10735 10728 10722 10713 10712 10709
10752 10758 10763 10765 10768 10772 10775 10778 10781 10783 10784 10786 10787 10787 10789 10788 10788 10787 10788 10788 10788 10787 10786 10784 10781 10778 10775 10771 10767 10763 10757 10752 10746 10738 10730 10725 10723 10718 10711 10704 10699 10692 10693
10732 10737 10742 10746 10750 10753 10756 10759 10762 10763 10764 10765 10766 10767 10768 10769 10769 10769 10769 10770 10770 10767 10766 10762 10758 10754 10752 10747 10743 10738 10733 10729 10723 10715 10710 10706 10700 10698 10693 10687 10684 10679 10676
10711 10719 10724 10725 10728 10733 10736 10738 10740 10741 10742 10743 10744 10746 10746 10747 10747 10746 10745 10744 10744 10742 10741 10739 10736 10732 10729 10724 10718 10713 10710 10705 10700 10695 10690 10686 10679 10675 10673 10669 10664 10660 10656
10690 10699 10700 10701 10706 10709 10713 10715 10717 10720 10721 10721 10720 10721 10722 10721 10720 10721 10721 10721 10720 10718 10718 10716 10711 10707 10702 10698 10692 10687 10683 10680 10680 10677 10670 10663 10656 10651 10646 10644 10642 10637 10635
10671 10677 10678 10683 10685 10685 10687 10692 10695 10695 10695 10694 10695 10696 10697 10697 10697 10696 10695 10695 10693 10691 10688 10685 10682 10680 10676 10672 10668 10663 10658 10654 10651 10648 10647 10642 10635 10625 10618 10616 10617 10615 10613